Farmville, Virginia, United States (23901)
Lat: 37.30N, Lon: 78.39W
Wx Zone: VAZ060
Local Info
Past Weather Observations for Yesterday

NOTE: This archive is for the closest National Weather Service station to Farmville. Information may differ from the station used for current weather conditions.

Click here for Long-term Archive

Time Weather Temperature Dewpoint Humidity Pressure Winds Precip Visibility
23:55
Partly Cloudy
70°F / 21°C 70°F / 21°C 100% 30.06 in
(1018 mb)
NNE 5.8 mph
(NNE 9 kph)
- 10SM
23:35
Mostly Cloudy
70°F / 21°C 70°F / 21°C 100% 30.06 in
(1018 mb)
Calm - 10SM
23:15
Mostly Cloudy
72°F / 22°C 70°F / 21°C 94% 30.06 in
(1018 mb)
N 4.6 mph
(N 7 kph)
- 10SM
22:55
Overcast
72°F / 22°C 72°F / 22°C 100% 30.06 in
(1018 mb)
N 3.5 mph
(N 6 kph)
- 10SM
22:35
Overcast
72°F / 22°C 72°F / 22°C 100% 30.06 in
(1018 mb)
NE 6.9 mph
(NE 11 kph)
0.12 in
(3.05 mm)
10SM
22:15
Overcast
Light Rain
73°F / 23°C 72°F / 22°C 94% 30.06 in
(1018 mb)
N 5.8 mph
(N 9 kph)
0.12 in
(3.05 mm)
10SM
21:55
Overcast
Light Rain
73°F / 23°C 72°F / 22°C 94% 30.04 in
(1017 mb)
N 4.6 mph
(N 7 kph)
0.03 in
(0.76 mm)
5SM
21:35
Overcast
Drizzle
73°F / 23°C 72°F / 22°C 94% 30.04 in
(1017 mb)
NE 4.6 mph
(NE 7 kph)
0.15 in
(3.81 mm)
4SM
21:15
Overcast
Rain
73°F / 23°C 73°F / 23°C 100% 30.04 in
(1017 mb)
Calm 0.14 in
(3.56 mm)
7SM
20:55
Overcast
Rain
73°F / 23°C 72°F / 22°C 94% 30.04 in
(1017 mb)
N 4.6 mph
(N 7 kph)
0.01 in
(0.25 mm)
5SM
20:35
Overcast
Heavy Rain
73°F / 23°C 72°F / 22°C 94% 30.04 in
(1017 mb)
ENE 6.9 mph
(ENE 11 kph)
0.36 in
(9.14 mm)
4SM
20:15
Overcast
Heavy Rain
73°F / 23°C 73°F / 23°C 100% 30.04 in
(1017 mb)
NW 4.6 mph
(NW 7 kph)
0.06 in
(1.52 mm)
7SM
19:55
Overcast
75°F / 24°C 70°F / 21°C 83% 29.98 in
(1015 mb)
E 4.6 mph
(E 7 kph)
- 10SM
19:35
Mostly Cloudy
73°F / 23°C 70°F / 21°C 89% 29.98 in
(1015 mb)
NE 3.5 mph
(NE 6 kph)
- 10SM
19:15
Overcast
75°F / 24°C 68°F / 20°C 78% 29.98 in
(1015 mb)
N 5.8 mph
(N 9 kph)
- 10SM
18:55
Mostly Cloudy
75°F / 24°C 68°F / 20°C 78% 29.98 in
(1015 mb)
E 5.8 mph
(E 9 kph)
- 10SM
18:35
Overcast
Rain
75°F / 24°C 75°F / 24°C 100% 29.98 in
(1015 mb)
ENE 10.4 mph
(ENE 17 kph)
- 5SM
18:15
Overcast
Light Rain
81°F / 27°C 72°F / 22°C 74% 29.98 in
(1015 mb)
N 8.1 mph
(N 13 kph)
- 7SM
17:55
Mostly Cloudy
86°F / 30°C 70°F / 21°C 59% 29.95 in
(1014 mb)
Calm - 10SM
17:35
Partly Cloudy
88°F / 31°C 68°F / 20°C 52% 29.95 in
(1014 mb)
SSE 3.5 mph
(SSE 6 kph)
- 10SM
17:15
Clear
90°F / 32°C 66°F / 19°C 46% 29.95 in
(1014 mb)
S 6.9 mph
(S 11 kph)
- 10SM
16:55
Partly Cloudy
90°F / 32°C 66°F / 19°C 46% 29.95 in
(1014 mb)
S 6.9 mph
(S 11 kph)
- 10SM
16:35
Clear
90°F / 32°C 64°F / 18°C 43% 29.95 in
(1014 mb)
SW 5.8 mph
(SW 9 kph)
- 10SM
16:15
Partly Cloudy
90°F / 32°C 64°F / 18°C 43% 29.95 in
(1014 mb)
SSE 3.5 mph
(SSE 6 kph)
- 10SM
15:55
Mostly Cloudy
91°F / 33°C 64°F / 18°C 41% 29.95 in
(1014 mb)
S 4.6 mph
(S 7 kph)
- 10SM
15:35
Partly Cloudy
90°F / 32°C 64°F / 18°C 43% 29.95 in
(1014 mb)
Calm - 10SM
15:15
Partly Cloudy
91°F / 33°C 64°F / 18°C 41% 29.95 in
(1014 mb)
Calm - 10SM
14:55
Mostly Cloudy
91°F / 33°C 64°F / 18°C 41% 29.95 in
(1014 mb)
SSW 6.9 mph
(SSW 11 kph)
- 10SM
14:35
Partly Cloudy
90°F / 32°C 64°F / 18°C 43% 29.95 in
(1014 mb)
SW 4.6 mph
(SW 7 kph)
- 10SM
14:15
Partly Cloudy
90°F / 32°C 64°F / 18°C 43% 29.95 in
(1014 mb)
Calm - 10SM
13:55
Partly Cloudy
90°F / 32°C 66°F / 19°C 46% 29.95 in
(1014 mb)
SSW 3.5 mph
(SSW 6 kph)
- 10SM
13:35
Mostly Cloudy
88°F / 31°C 68°F / 20°C 52% 29.98 in
(1015 mb)
ESE 4.6 mph
(ESE 7 kph)
- 10SM
13:15
Mostly Cloudy
88°F / 31°C 68°F / 20°C 52% 29.98 in
(1015 mb)
ESE 3.5 mph
(ESE 6 kph)
- 10SM
12:55
Mostly Cloudy
84°F / 29°C 66°F / 19°C 55% 29.98 in
(1015 mb)
Calm - 10SM
12:35
Mostly Cloudy
88°F / 31°C 68°F / 20°C 52% 29.98 in
(1015 mb)
S 4.6 mph
(S 7 kph)
- 10SM
12:15
Partly Cloudy
84°F / 29°C 70°F / 21°C 62% 29.98 in
(1015 mb)
S 3.5 mph
(S 6 kph)
- 10SM
11:55
Mostly Cloudy
84°F / 29°C 70°F / 21°C 62% 29.98 in
(1015 mb)
S 4.6 mph
(S 7 kph)
- 10SM
11:35
Mostly Cloudy
84°F / 29°C 70°F / 21°C 62% 29.98 in
(1015 mb)
S 5.8 mph
(S 9 kph)
- 10SM
11:15
Partly Cloudy
84°F / 29°C 70°F / 21°C 62% 29.98 in
(1015 mb)
SW 3.5 mph
(SW 6 kph)
- 10SM
10:55
Partly Cloudy
84°F / 29°C 68°F / 20°C 58% 29.98 in
(1015 mb)
S 3.5 mph
(S 6 kph)
- 10SM
10:35
Clear
84°F / 29°C 68°F / 20°C 58% 29.98 in
(1015 mb)
Calm - 10SM
10:15
Clear
82°F / 28°C 70°F / 21°C 66% 29.98 in
(1015 mb)
Calm - 10SM
09:55
Clear
82°F / 28°C 68°F / 20°C 62% 30.01 in
(1016 mb)
Calm - 10SM
09:35
Clear
82°F / 28°C 68°F / 20°C 62% 30.01 in
(1016 mb)
Calm - 10SM
09:15
Clear
81°F / 27°C 68°F / 20°C 66% 29.98 in
(1015 mb)
NE 3.5 mph
(NE 6 kph)
- 10SM
08:55
Clear
79°F / 26°C 68°F / 20°C 70% 29.98 in
(1015 mb)
Calm - 10SM
08:35
Clear
79°F / 26°C 70°F / 21°C 74% 29.98 in
(1015 mb)
Calm - 10SM
08:15
Clear
77°F / 25°C 68°F / 20°C 74% 29.98 in
(1015 mb)
Calm - 10SM
07:55
Clear
73°F / 23°C 72°F / 22°C 94% 29.98 in
(1015 mb)
Calm - 10SM
07:35
Clear
72°F / 22°C 70°F / 21°C 94% 29.98 in
(1015 mb)
Calm - 10SM
07:15
Clear
70°F / 21°C 68°F / 20°C 94% 29.98 in
(1015 mb)
Calm - 10SM
06:55
Clear
66°F / 19°C 66°F / 19°C 100% 29.98 in
(1015 mb)
Calm - 10SM
06:35
Clear
66°F / 19°C 66°F / 19°C 100% 29.98 in
(1015 mb)
Calm - 10SM
06:15
Clear
64°F / 18°C 64°F / 18°C 100% 29.98 in
(1015 mb)
Calm - 10SM
05:55
Clear
64°F / 18°C 64°F / 18°C 100% 29.98 in
(1015 mb)
Calm - 7SM
05:35
Clear
64°F / 18°C 64°F / 18°C 100% 29.95 in
(1014 mb)
Calm - 7SM
05:15
Partly Cloudy
66°F / 19°C 64°F / 18°C 94% 29.95 in
(1014 mb)
Calm - 10SM
04:55
Clear
64°F / 18°C 64°F / 18°C 100% 29.95 in
(1014 mb)
Calm - 10SM
04:35
Clear
64°F / 18°C 64°F / 18°C 100% 29.95 in
(1014 mb)
Calm - 10SM
04:15
Clear
64°F / 18°C 63°F / 17°C 94% 29.92 in
(1013 mb)
Calm - 10SM
03:55
Clear
64°F / 18°C 64°F / 18°C 100% 29.92 in
(1013 mb)
Calm - 10SM
03:35
Clear
66°F / 19°C 64°F / 18°C 94% 29.92 in
(1013 mb)
Calm - 10SM
03:15
Clear
66°F / 19°C 64°F / 18°C 94% 29.92 in
(1013 mb)
Calm - 10SM
02:55
Clear
66°F / 19°C 64°F / 18°C 94% 29.92 in
(1013 mb)
Calm - 10SM
02:35
Clear
66°F / 19°C 64°F / 18°C 94% 29.92 in
(1013 mb)
Calm - 10SM
02:15
Clear
66°F / 19°C 66°F / 19°C 100% 29.92 in
(1013 mb)
Calm - 10SM
01:55
Clear
66°F / 19°C 66°F / 19°C 100% 29.92 in
(1013 mb)
Calm - 10SM
01:35
Clear
70°F / 21°C 68°F / 20°C 94% 29.92 in
(1013 mb)
SW 3.5 mph
(SW 6 kph)
- 10SM
01:15
Clear
70°F / 21°C 66°F / 19°C 88% 29.92 in
(1013 mb)
SSW 4.6 mph
(SSW 7 kph)
- 10SM
00:55
Clear
68°F / 20°C 66°F / 19°C 94% 29.92 in
(1013 mb)
Calm - 10SM
00:35
Clear
70°F / 21°C 68°F / 20°C 94% 29.95 in
(1014 mb)
SSW 4.6 mph
(SSW 7 kph)
- 10SM
00:15
Clear
70°F / 21°C 68°F / 20°C 94% 29.95 in
(1014 mb)
Calm - 10SM
Time Weather Temperature Dewpoint Humidity Pressure Winds Precip Visibility


Weather for websites

WeatherForYou.com, LLC is not responsible for any damages or problems caused by this service. Current weather conditions are obtained from the closest station including government and personal stations which may have varying degrees of accuracy. Weather forecasts are derived from the NOAA NDFD. Like all things, this site belongs to Jesus Christ... He just trusts me to maintain it. If you have any questions or comments email webmaster@weatherforyou.com

Copyright © 2014, WeatherForYou.com LLC. All rights reserved.